TimeCEST,TemperatureF,Dew PointF,Humidity,Sea Level PressureIn,VisibilityMPH,Wind Direction,Wind SpeedMPH,Gust SpeedMPH,PrecipitationIn,Events,Conditions,WindDirDegrees,DateUTC
12:15 AM,60.8,57.2,88,29.68,-9999.0,Calm,Calm,-,N/A,,Clear,0,2013-05-16 22:15:00
12:45 AM,60.8,57.2,88,29.68,-9999.0,Calm,Calm,-,N/A,,Clear,0,2013-05-16 22:45:00
1:15 AM,59.0,57.2,94,29.68,-9999.0,Calm,Calm,-,N/A,,Clear,0,2013-05-16 23:15:00
1:45 AM,59.0,57.2,94,29.65,-9999.0,NE,2.2,-,N/A,,Clear,40,2013-05-16 23:45:00
2:15 AM,59.0,57.2,94,29.65,-9999.0,Calm,Calm,-,N/A,,Clear,0,2013-05-17 00:15:00
2:45 AM,59.0,57.2,94,29.65,-9999.0,Calm,Calm,-,N/A,,Clear,0,2013-05-17 00:45:00
3:15 AM,59.0,57.2,94,29.65,-9999.0,Calm,Calm,-,N/A,,Clear,0,2013-05-17 01:15:00
3:45 AM,-9999,-9999,N/A,-9999,3.1,Variable,4.5,-,N/A,,Clear,0,2013-05-17 01:45:00
5:15 AM,55.4,55.4,100,29.65,-9999.0,ESE,4.5,-,N/A,,Clear,120,2013-05-17 03:15:00
5:45 AM,57.2,53.6,88,29.65,-9999.0,SE,6.7,-,N/A,,Clear,140,2013-05-17 03:45:00
6:15 AM,57.2,55.4,94,29.65,-9999.0,SE,4.5,-,N/A,,Clear,140,2013-05-17 04:15:00
6:45 AM,-9999,-9999,N/A,-9999,3.1,Variable,4.5,-,N/A,Rain,Rain,0,2013-05-17 04:45:00
7:15 AM,60.8,57.2,88,29.65,-9999.0,Calm,Calm,-,N/A,,Clear,0,2013-05-17 05:15:00
7:45 AM,62.6,57.2,82,29.65,-9999.0,ESE,6.7,-,N/A,,Clear,120,2013-05-17 05:45:00
8:15 AM,62.6,57.2,82,29.65,-9999.0,SE,8.9,-,N/A,,Clear,130,2013-05-17 06:15:00
8:45 AM,64.4,57.2,77,29.65,-9999.0,SSE,6.7,-,N/A,,Clear,150,2013-05-17 06:45:00
9:15 AM,64.4,57.2,77,29.65,6.2,SE,11.2,-,N/A,,Mostly Cloudy,140,2013-05-17 07:15:00
9:45 AM,-9999,-9999,N/A,-9999,6.2,SE,11.2,-,N/A,,Mostly Cloudy,140,2013-05-17 07:45:00
10:15 AM,64.4,57.2,77,29.65,6.2,SE,8.9,-,N/A,Rain,Light Rain Showers,130,2013-05-17 08:15:00
10:45 AM,64.4,59.0,83,29.65,6.2,SSE,4.5,-,N/A,Rain,Light Rain Showers,150,2013-05-17 08:45:00
11:15 AM,66.2,59.0,78,29.65,6.2,SE,8.9,-,N/A,Rain,Light Rain Showers,130,2013-05-17 09:15:00
11:45 AM,66.2,59.0,78,29.65,6.2,SSE,8.9,-,N/A,,Mostly Cloudy,150,2013-05-17 09:45:00
12:15 PM,69.8,57.2,64,29.65,6.2,SE,8.9,-,N/A,,Mostly Cloudy,140,2013-05-17 10:15:00
12:45 PM,-9999,-9999,N/A,-9999,6.2,SE,11.2,-,N/A,,Mostly Cloudy,140,2013-05-17 10:45:00
1:15 PM,71.6,57.2,60,29.65,6.2,SE,11.2,22.4,N/A,,Mostly Cloudy,130,2013-05-17 11:15:00
1:45 PM,69.8,57.2,64,29.65,6.2,SE,11.2,-,N/A,,Mostly Cloudy,140,2013-05-17 11:45:00
2:45 PM,71.6,57.2,60,29.65,6.2,SE,11.2,-,N/A,,Mostly Cloudy,130,2013-05-17 12:45:00
3:15 PM,69.8,59.0,68,29.65,6.2,ESE,11.2,-,N/A,,Mostly Cloudy,120,2013-05-17 13:15:00
3:45 PM,-9999,-9999,N/A,-9999,6.2,SE,11.2,-,N/A,,Mostly Cloudy,140,2013-05-17 13:45:00
4:15 PM,71.6,57.2,60,29.62,6.2,ESE,11.2,-,N/A,,Mostly Cloudy,120,2013-05-17 14:15:00
4:45 PM,71.6,57.2,60,29.62,6.2,SE,11.2,-,N/A,,Mostly Cloudy,130,2013-05-17 14:45:00
5:15 PM,69.8,57.2,64,29.62,6.2,South,11.2,-,N/A,,Mostly Cloudy,170,2013-05-17 15:15:00
5:45 PM,66.2,60.8,83,29.62,6.2,WSW,6.7,-,N/A,Rain,Light Rain Showers,240,2013-05-17 15:45:00
6:15 PM,64.4,62.6,94,29.62,6.2,West,4.5,-,N/A,Rain-Thunderstorm,Light Thunderstorms and Rain,270,2013-05-17 16:15:00
6:45 PM,-9999,-9999,N/A,-9999,6.2,SE,6.7,-,N/A,,Mostly Cloudy,140,2013-05-17 16:45:00
7:15 PM,62.6,60.8,94,29.62,3.7,South,4.5,-,N/A,Rain-Thunderstorm,Thunderstorms and Rain,170,2013-05-17 17:15:00
7:45 PM,62.6,60.8,94,29.62,3.1,East,11.2,22.4,N/A,Rain-Thunderstorm,Thunderstorms and Rain,90,2013-05-17 17:45:00
8:15 PM,57.2,55.4,94,29.65,1.2,South,24.6,-,N/A,Rain-Thunderstorm,Thunderstorms and Rain,170,2013-05-17 18:15:00
8:45 PM,57.2,55.4,94,29.68,1.2,South,11.2,-,N/A,Rain-Thunderstorm,Light Thunderstorms and Rain,180,2013-05-17 18:45:00
9:15 PM,57.2,57.2,100,29.68,3.1,SE,8.9,-,N/A,Rain,Rain Showers,130,2013-05-17 19:15:00
9:45 PM,-9999,-9999,N/A,-9999,1.9,South,11.2,-,N/A,Fog,Clear,190,2013-05-17 19:45:00
10:15 PM,57.2,57.2,100,29.65,3.1,SE,6.7,-,N/A,Rain,Light Rain Showers,140,2013-05-17 20:15:00
10:45 PM,57.2,55.4,94,29.65,3.1,South,11.2,-,N/A,Rain,Light Rain Showers,180,2013-05-17 20:45:00
11:15 PM,57.2,55.4,94,29.68,5.0,South,15.7,-,N/A,,Unknown,170,2013-05-17 21:15:00
11:45 PM,57.2,55.4,94,29.68,-9999.0,South,15.7,-,N/A,,Clear,170,2013-05-17 21:45:00